Fairbury, Nebraska, United States (68352)
Lat: 40.14N, Lon: 97.18W
Wx Zone: NEZ088
Local Info
Past Weather Observations for Today

NOTE: This archive is for the closest National Weather Service station to Fairbury. Information may differ from the station used for current weather conditions.

Click here for Long-term Archive

Time Weather Temperature Dewpoint Humidity Pressure Winds Precip Visibility
15:15
Partly Cloudy
97°F / 36°C 75°F / 24°C 50% 30.06 in
(1018 mb)
N 9.2 mph
(N 15 kph)
- 10SM
14:55
Clear
97°F / 36°C 72°F / 22°C 44% 30.06 in
(1018 mb)
N 3.5 mph
(N 6 kph)
- 10SM
14:35
Clear
95°F / 35°C 72°F / 22°C 47% 30.06 in
(1018 mb)
N 3.5 mph
(N 6 kph)
- 10SM
14:15
Clear
95°F / 35°C 72°F / 22°C 47% 30.06 in
(1018 mb)
NE 4.6 mph
(NE 7 kph)
- 10SM
13:55
Clear
95°F / 35°C 73°F / 23°C 50% 30.06 in
(1018 mb)
N 6.9 mph
(N 11 kph)
- 10SM
13:35
Clear
95°F / 35°C 70°F / 21°C 44% 30.06 in
(1018 mb)
Calm - 10SM
13:15
Clear
93°F / 34°C 72°F / 22°C 49% 30.06 in
(1018 mb)
NE 5.8 mph
(NE 9 kph)
- 10SM
12:55
Clear
93°F / 34°C 72°F / 22°C 49% 30.06 in
(1018 mb)
NNW 9.2 mph
(NNW 15 kph)
- 10SM
12:35
Clear
93°F / 34°C 72°F / 22°C 49% 30.06 in
(1018 mb)
N 8.1 mph
(N 13 kph)
- 10SM
12:15
Clear
93°F / 34°C 68°F / 20°C 44% 30.06 in
(1018 mb)
N 6.9 mph
(N 11 kph)
- 10SM
11:55
Clear
91°F / 33°C 68°F / 20°C 46% 30.06 in
(1018 mb)
NW 5.8 mph
(NW 9 kph)
- 10SM
11:35
Clear
91°F / 33°C 68°F / 20°C 46% 30.04 in
(1017 mb)
Calm - 10SM
11:15
Clear
91°F / 33°C 68°F / 20°C 46% 30.04 in
(1017 mb)
SW 4.6 mph
(SW 7 kph)
- 10SM
10:55
Clear
90°F / 32°C 68°F / 20°C 49% 30.04 in
(1017 mb)
SW 3.5 mph
(SW 6 kph)
- 10SM
10:35
Clear
90°F / 32°C 68°F / 20°C 49% 30.04 in
(1017 mb)
SSW 4.6 mph
(SSW 7 kph)
- 10SM
10:15
Clear
90°F / 32°C 68°F / 20°C 49% 30.06 in
(1018 mb)
SSW 6.9 mph
(SSW 11 kph)
- 10SM
09:55
Clear
90°F / 32°C 68°F / 20°C 49% 30.04 in
(1017 mb)
SSW 6.9 mph
(SSW 11 kph)
- 10SM
09:35
Clear
88°F / 31°C 68°F / 20°C 52% 30.04 in
(1017 mb)
W 3.5 mph
(W 6 kph)
- 10SM
09:15
Clear
88°F / 31°C 68°F / 20°C 52% 30.04 in
(1017 mb)
W 4.6 mph
(W 7 kph)
- 10SM
08:55
Clear
86°F / 30°C 66°F / 19°C 52% 30.04 in
(1017 mb)
SSW 5.8 mph
(SSW 9 kph)
- 10SM
08:35
Clear
86°F / 30°C 68°F / 20°C 55% 30.06 in
(1018 mb)
W 4.6 mph
(W 7 kph)
- 10SM
08:15
Clear
84°F / 29°C 68°F / 20°C 58% 30.06 in
(1018 mb)
W 6.9 mph
(W 11 kph)
- 10SM
07:55
Clear
82°F / 28°C 70°F / 21°C 66% 30.06 in
(1018 mb)
W 5.8 mph
(W 9 kph)
- 10SM
07:35
Clear
81°F / 27°C 70°F / 21°C 70% 30.04 in
(1017 mb)
Calm - 10SM
07:15
Clear
79°F / 26°C 70°F / 21°C 74% 30.04 in
(1017 mb)
SSW 4.6 mph
(SSW 7 kph)
- 10SM
06:55
Clear
77°F / 25°C 70°F / 21°C 79% 30.04 in
(1017 mb)
SSW 6.9 mph
(SSW 11 kph)
- 10SM
06:35
Clear
77°F / 25°C 70°F / 21°C 79% 30.04 in
(1017 mb)
SSW 6.9 mph
(SSW 11 kph)
- 7SM
06:15
Clear
Hazy
73°F / 23°C 68°F / 20°C 83% 30.04 in
(1017 mb)
SW 4.6 mph
(SW 7 kph)
- 5SM
05:55
Clear
73°F / 23°C 68°F / 20°C 83% 30.04 in
(1017 mb)
SSW 3.5 mph
(SSW 6 kph)
- 7SM
05:35
Clear
Hazy
72°F / 22°C 66°F / 19°C 83% 30.01 in
(1016 mb)
Calm - 5SM
04:15
Clear
73°F / 23°C 68°F / 20°C 83% 29.98 in
(1015 mb)
Calm - 10SM
03:55
Clear
75°F / 24°C 68°F / 20°C 78% 29.98 in
(1015 mb)
SSW 3.5 mph
(SSW 6 kph)
- 10SM
03:35
Clear
77°F / 25°C 68°F / 20°C 74% 29.98 in
(1015 mb)
Calm - 10SM
03:15
Clear
77°F / 25°C 68°F / 20°C 74% 29.98 in
(1015 mb)
SSE 4.6 mph
(SSE 7 kph)
- 10SM
02:55
Clear
77°F / 25°C 68°F / 20°C 74% 29.98 in
(1015 mb)
SW 5.8 mph
(SW 9 kph)
- 10SM
02:35
Clear
79°F / 26°C 68°F / 20°C 70% 29.95 in
(1014 mb)
SSE 5.8 mph
(SSE 9 kph)
- 10SM
02:15
Clear
79°F / 26°C 68°F / 20°C 70% 29.95 in
(1014 mb)
SSE 8.1 mph
(SSE 13 kph)
- 10SM
01:55
Clear
81°F / 27°C 68°F / 20°C 66% 29.95 in
(1014 mb)
SSE 8.1 mph
(SSE 13 kph)
- 10SM
01:35
Clear
81°F / 27°C 68°F / 20°C 66% 29.98 in
(1015 mb)
SW 4.6 mph
(SW 7 kph)
- 10SM
01:15
Clear
81°F / 27°C 68°F / 20°C 66% 29.98 in
(1015 mb)
SW 5.8 mph
(SW 9 kph)
- 10SM
00:55
Clear
81°F / 27°C 68°F / 20°C 66% 29.95 in
(1014 mb)
SSE 5.8 mph
(SSE 9 kph)
- 10SM
00:35
Clear
81°F / 27°C 70°F / 21°C 70% 29.95 in
(1014 mb)
SSE 3.5 mph
(SSE 6 kph)
- 10SM
00:15
Clear
82°F / 28°C 70°F / 21°C 66% 29.98 in
(1015 mb)
SW 4.6 mph
(SW 7 kph)
- 10SM
Time Weather Temperature Dewpoint Humidity Pressure Winds Precip Visibility


Weather for websites

WeatherForYou.com, LLC is not responsible for any damages or problems caused by this service. Current weather conditions are obtained from the closest station including government and personal stations which may have varying degrees of accuracy. Weather forecasts are derived from the NOAA NDFD. Like all things, this site belongs to Jesus Christ... He just trusts me to maintain it. If you have any questions or comments email webmaster@weatherforyou.com

Copyright © 2014, WeatherForYou.com LLC. All rights reserved.